Previsão horária em Semykhatky

Hoje, 25 Junho, Sexta-feira

Tempo Temperatura Precipitação Vento Pressão Humidade
00:00 +25°C° 0 mm 3 m/s 752 mmHg 75%
01:00 +24°C° 0 mm 3 m/s 752 mmHg 73%
02:00 +24°C° 0 mm 3 m/s 751 mmHg 72%
03:00 +22°C° 0.2 mm 3 m/s 751 mmHg 74%
04:00 +22°C° 0.2 mm 4 m/s 751 mmHg 76%
05:00 +22°C° 0.2 mm 4 m/s 751 mmHg 79%
06:00 +22°C° 1.6 mm 4 m/s 751 mmHg 77%
07:00 +23°C° 1.6 mm 5 m/s 751 mmHg 76%
08:00 +25°C° 1.6 mm 5 m/s 751 mmHg 75%
09:00 +27°C° 0.1 mm 5 m/s 751 mmHg 69%
10:00 +29°C° 0.1 mm 5 m/s 751 mmHg 63%
11:00 +32°C° 0.1 mm 5 m/s 751 mmHg 57%
12:00 +33°C° 0 mm 4 m/s 751 mmHg 52%
13:00 +34°C° 0 mm 4 m/s 751 mmHg 47%
14:00 +35°C° 0 mm 3 m/s 751 mmHg 42%
15:00 +35°C° 0 mm 3 m/s 751 mmHg 42%
16:00 +35°C° 0 mm 3 m/s 751 mmHg 42%
17:00 +35°C° 0 mm 3 m/s 750 mmHg 42%
18:00 +33°C° 0 mm 3 m/s 750 mmHg 48%
19:00 +30°C° 0 mm 2 m/s 750 mmHg 55%
20:00 +28°C° 0 mm 2 m/s 750 mmHg 61%
21:00 +28°C° 0 mm 2 m/s 750 mmHg 64%
22:00 +27°C° 0 mm 2 m/s 750 mmHg 66%
23:00 +26°C° 0 mm 3 m/s 750 mmHg 68%

Amanhã, 26 Junho, Sábado

Tempo Temperatura Precipitação Vento Pressão Humidade
00:00 +26°C° 0 mm 3 m/s 750 mmHg 70%
01:00 +25°C° 0 mm 3 m/s 750 mmHg 72%
02:00 +25°C° 0 mm 2 m/s 750 mmHg 74%
03:00 +25°C° 0 mm 3 m/s 750 mmHg 76%
04:00 +24°C° 0 mm 3 m/s 750 mmHg 78%
05:00 +24°C° 0 mm 3 m/s 750 mmHg 80%
06:00 +26°C° 0 mm 3 m/s 750 mmHg 74%
07:00 +27°C° 0 mm 3 m/s 750 mmHg 68%
08:00 +29°C° 0 mm 3 m/s 750 mmHg 62%
09:00 +31°C° 0 mm 3 m/s 750 mmHg 56%
10:00 +33°C° 0 mm 3 m/s 750 mmHg 50%
11:00 +34°C° 0 mm 3 m/s 750 mmHg 44%
12:00 +35°C° 0 mm 3 m/s 750 mmHg 41%
13:00 +36°C° 0 mm 3 m/s 750 mmHg 38%
14:00 +36°C° 0 mm 3 m/s 750 mmHg 36%
15:00 +36°C° 0 mm 2 m/s 749 mmHg 37%
16:00 +36°C° 0 mm 2 m/s 749 mmHg 38%
17:00 +36°C° 0 mm 2 m/s 748 mmHg 39%
18:00 +31°C° 1 mm 2 m/s 748 mmHg 50%
19:00 +28°C° 1 mm 3 m/s 748 mmHg 62%
20:00 +25°C° 1 mm 4 m/s 748 mmHg 74%
21:00 +23°C° 2.5 mm 5 m/s 749 mmHg 78%
22:00 +22°C° 2.5 mm 7 m/s 749 mmHg 83%
23:00 +21°C° 2.5 mm 8 m/s 750 mmHg 88%

Depois de amanhã, 27 Junho, Domingo

Tempo Temperatura Precipitação Vento Pressão Humidade
00:00 +21°C° 0.3 mm 7 m/s 750 mmHg 88%
01:00 +21°C° 0.3 mm 5 m/s 750 mmHg 88%
02:00 +21°C° 0.3 mm 3 m/s 750 mmHg 88%
03:00 +21°C° 0.1 mm 3 m/s 750 mmHg 89%
04:00 +21°C° 0.1 mm 3 m/s 750 mmHg 91%
05:00 +21°C° 0.1 mm 3 m/s 750 mmHg 92%
06:00 +22°C° 0 mm 3 m/s 750 mmHg 85%
07:00 +23°C° 0 mm 4 m/s 750 mmHg 78%
08:00 +26°C° 0 mm 4 m/s 751 mmHg 71%
09:00 +27°C° 0 mm 4 m/s 751 mmHg 66%
10:00 +28°C° 0 mm 4 m/s 751 mmHg 62%
11:00 +29°C° 0 mm 5 m/s 751 mmHg 58%
12:00 +29°C° 0 mm 5 m/s 751 mmHg 57%
13:00 +30°C° 0 mm 5 m/s 751 mmHg 56%
14:00 +30°C° 0 mm 6 m/s 751 mmHg 55%
15:00 +30°C° 0 mm 6 m/s 751 mmHg 57%
16:00 +29°C° 0 mm 6 m/s 750 mmHg 58%
17:00 +29°C° 0 mm 6 m/s 750 mmHg 59%
18:00 +28°C° 0 mm 5 m/s 751 mmHg 66%
19:00 +27°C° 0 mm 4 m/s 751 mmHg 72%
20:00 +25°C° 0 mm 4 m/s 751 mmHg 78%
21:00 +25°C° 0.1 mm 4 m/s 751 mmHg 82%
22:00 +23°C° 0.1 mm 4 m/s 751 mmHg 85%
23:00 +22°C° 0.1 mm 4 m/s 751 mmHg 88%

28 Junho, Segunda-feira

Tempo Temperatura Precipitação Vento Pressão Humidade
00:00 +22°C° 0 mm 4 m/s 751 mmHg 89%
01:00 +22°C° 0 mm 4 m/s 751 mmHg 90%
02:00 +21°C° 0 mm 5 m/s 751 mmHg 90%
03:00 +21°C° 0 mm 4 m/s 751 mmHg 91%
04:00 +21°C° 0 mm 4 m/s 752 mmHg 91%
05:00 +20°C° 0 mm 4 m/s 752 mmHg 91%
06:00 +22°C° 0 mm 5 m/s 752 mmHg 84%
07:00 +23°C° 0 mm 6 m/s 752 mmHg 77%
08:00 +24°C° 0 mm 6 m/s 752 mmHg 70%
09:00 +26°C° 0 mm 6 m/s 752 mmHg 65%
10:00 +28°C° 0 mm 6 m/s 752 mmHg 60%
11:00 +29°C° 0 mm 6 m/s 752 mmHg 55%
12:00 +29°C° 0 mm 6 m/s 752 mmHg 53%
13:00 +30°C° 0 mm 6 m/s 752 mmHg 50%
14:00 +30°C° 0 mm 6 m/s 752 mmHg 48%
15:00 +29°C° 0 mm 6 m/s 752 mmHg 53%
16:00 +28°C° 0 mm 6 m/s 753 mmHg 58%
17:00 +27°C° 0 mm 5 m/s 753 mmHg 63%
18:00 +26°C° 0 mm 5 m/s 753 mmHg 67%
19:00 +25°C° 0 mm 4 m/s 753 mmHg 70%
20:00 +24°C° 0 mm 3 m/s 753 mmHg 74%
21:00 +22°C° 0 mm 3 m/s 753 mmHg 75%
22:00 +21°C° 0 mm 3 m/s 753 mmHg 76%
23:00 +21°C° 0 mm 3 m/s 753 mmHg 77%

29 Junho, Terça-feira

Tempo Temperatura Precipitação Vento Pressão Humidade
00:00 +20°C° 0 mm 3 m/s 753 mmHg 78%
01:00 +20°C° 0 mm 3 m/s 753 mmHg 78%
02:00 +20°C° 0 mm 3 m/s 753 mmHg 79%
03:00 +19°C° 0 mm 3 m/s 753 mmHg 79%
04:00 +19°C° 0 mm 3 m/s 753 mmHg 79%
05:00 +19°C° 0 mm 3 m/s 753 mmHg 79%
06:00 +21°C° 0 mm 3 m/s 753 mmHg 72%
07:00 +22°C° 0 mm 3 m/s 753 mmHg 65%
08:00 +25°C° 0 mm 3 m/s 754 mmHg 58%
09:00 +26°C° 0 mm 3 m/s 753 mmHg 53%
10:00 +28°C° 0 mm 3 m/s 753 mmHg 48%
11:00 +29°C° 0 mm 3 m/s 753 mmHg 43%
12:00 +29°C° 0 mm 4 m/s 753 mmHg 41%
13:00 +30°C° 0 mm 4 m/s 753 mmHg 39%
14:00 +30°C° 0 mm 4 m/s 753 mmHg 37%
15:00 +30°C° 0 mm 4 m/s 752 mmHg 39%
16:00 +30°C° 0 mm 4 m/s 752 mmHg 40%
17:00 +30°C° 0 mm 4 m/s 752 mmHg 41%
18:00 +28°C° 0 mm 4 m/s 752 mmHg 47%
19:00 +26°C° 0 mm 3 m/s 752 mmHg 53%
20:00 +25°C° 0 mm 2 m/s 752 mmHg 59%
21:00 +24°C° 0 mm 2 m/s 752 mmHg 59%
22:00 +24°C° 0 mm 1 m/s 752 mmHg 58%
23:00 +24°C° 0 mm 1 m/s 752 mmHg 58%

30 Junho, Quarta-feira

Tempo Temperatura Precipitação Vento Pressão Humidade
00:00 +23°C° 0 mm 1 m/s 752 mmHg 59%
01:00 +23°C° 0 mm 1 m/s 752 mmHg 60%
02:00 +23°C° 0 mm 2 m/s 752 mmHg 61%
03:00 +21°C° 0 mm 2 m/s 752 mmHg 63%
04:00 +21°C° 0 mm 2 m/s 752 mmHg 65%
05:00 +21°C° 0 mm 2 m/s 751 mmHg 67%
06:00 +24°C° 0 mm 2 m/s 752 mmHg 63%
07:00 +25°C° 0 mm 2 m/s 752 mmHg 59%
08:00 +27°C° 0 mm 2 m/s 752 mmHg 55%
09:00 +28°C° 0 mm 2 m/s 751 mmHg 52%
10:00 +29°C° 0 mm 2 m/s 751 mmHg 49%
11:00 +31°C° 0 mm 3 m/s 751 mmHg 46%
12:00 +31°C° 0 mm 3 m/s 751 mmHg 46%
13:00 +33°C° 0 mm 3 m/s 750 mmHg 45%
14:00 +33°C° 0 mm 4 m/s 750 mmHg 45%
15:00 +32°C° 0.1 mm 4 m/s 750 mmHg 50%
16:00 +30°C° 0.1 mm 5 m/s 750 mmHg 55%
17:00 +29°C° 0.1 mm 5 m/s 750 mmHg 60%
18:00 +28°C° 0.2 mm 5 m/s 750 mmHg 67%
19:00 +26°C° 0.2 mm 4 m/s 750 mmHg 74%
20:00 +25°C° 0.2 mm 4 m/s 750 mmHg 81%
21:00 +23°C° 0.2 mm 4 m/s 750 mmHg 81%
22:00 +23°C° 0.2 mm 5 m/s 750 mmHg 80%
23:00 +23°C° 0.2 mm 5 m/s 750 mmHg 80%
Mostrar mais

Necessitamos do seu Consentimento

A Meteoprog e os seus Fornecedores de Serviços podem armazenar e aceder a dados pessoais como cookies, identificadores do dispositivo ou outras tecnologias semelhantes existentes no seu dispositivo e processar estes dados para personalizar conteúdos e anúncios, assim como funcionalidades nas redes sociais e análise de tráfego.

  • Armazenar e/ou aceder a informações no seu dispositivo

    Os cookies, identificadores do dispositivo ou outras informações podem ser armazenados ou acedidos no seu dispositivo, para os fins acima indicados.

  • Anúncios e conteúdos personalizados, medição de anúncios e conteúdos, dados sobre o público-alvo e desenvolvimento de produtos

    Os anúncios e os conteúdos podem ser personalizados com base num perfil. Podem ser adicionados dados adicionais para uma maior personalização dos anúncios e dos conteúdos. A eficácia dos anúncios e dos conteúdos pode ser medida. Podem ser obtidas informações sobre o público que visualizou os anúncios e os conteúdos. Estes dados podem ser usados para desenvolver ou melhorar sistemas, softwares ou a experiência do utilizador.

Ao clicar em "Eu concordo”, permitirá o uso de cookies, identificadores do dispositivo e web beacons mencionados ou outras tecnologias semelhantes. As configurações do navegador do seu dispositivo podem ser alteradas.

Para certos fins, podem ser invocados interesses legítimos ao invés de consentimento. Pode ler mais informação sobre este assunto na nossa Política de Privacidade e Cookies.